{"data":{"norad_id":55481,"intl_designator":"2023-015AJ","name":"STARLINK-5694","alt_names":[],"object_type":"PAYLOAD","status":"ACTIVE","operator":null,"country":"US","launch_date":"2023-02-02","launch_site_code":"AFETR","launch_vehicle":null,"mission":null,"orbit_class":"UNKNOWN","rcs_meters":null,"size_class":null,"mass_kg":null,"dimensions":null,"purposes":["comms"],"wikipedia_slug":null,"has_3d_model":false,"image_url":null,"decayed_at":null,"tle_current":{"epoch":"2026-09-20T20:49:18.168960Z","epoch_age_seconds":68362,"freshness":"FRESH","line1":"1 55481U 23015AJ  26263.86757140 -.00000276  00000+0 -51484-6 0  9995","line2":"2 55481  43.0042 317.6087 0001164 294.9504  65.1226 15.27575102200442","mean_motion":15.27575102,"eccentricity":0.0001164,"inclination_deg":43.0042,"raan_deg":317.6087,"arg_perigee_deg":294.9504,"mean_anomaly_deg":65.1226,"bstar":-5.1484e-7,"rev_number":20044,"period_min":94.267050969518,"perigee_km":482.26511868414,"apogee_km":483.86240622164,"semimajor_km":6861.2007624529,"source":"CELESTRAK","updated_at":"2026-09-21T09:00:33.234926Z"}}}